• In Uzbekistan
  • List of Countries
  • For 7 days
  • Water Temperature
  • Satellite Maps
  • Weather Map
  • Weather Widgets
  • user-avatar
    Login

    Hourly Weather Gori

    Today, 20 January, Saturday

    Time Temperature Precipitation Wind Pressure Humidity
    00:00 +2°C° 0 mm 3 mps 697 mmHg 86%
    01:00 +2°C° 0 mm 3 mps 698 mmHg 86%
    02:00 +2°C° 0 mm 3 mps 698 mmHg 85%
    03:00 +1°C° 0 mm 6 mps 698 mmHg 86%
    04:00 +1°C° 0 mm 5 mps 698 mmHg 85%
    05:00 +1°C° 0 mm 4 mps 699 mmHg 84%
    06:00 +1°C° 0 mm 4 mps 699 mmHg 83%
    07:00 +2°C° 0 mm 3 mps 700 mmHg 82%
    08:00 +2°C° 0 mm 3 mps 700 mmHg 82%
    09:00 +2°C° 0 mm 3 mps 700 mmHg 81%
    10:00 +3°C° 0 mm 3 mps 700 mmHg 77%
    11:00 +6°C° 0 mm 2 mps 700 mmHg 73%
    12:00 +7°C° 0 mm 2 mps 700 mmHg 69%
    13:00 +7°C° 0 mm 2 mps 700 mmHg 68%
    14:00 +7°C° 0 mm 2 mps 700 mmHg 67%
    15:00 +9°C° 0 mm 1 mps 700 mmHg 65%
    16:00 +7°C° 0 mm 1 mps 700 mmHg 67%
    17:00 +6°C° 0 mm 1 mps 701 mmHg 69%
    18:00 +5°C° 0 mm 1 mps 701 mmHg 71%
    19:00 +4°C° 0 mm 1 mps 701 mmHg 68%
    20:00 +4°C° 0 mm 1 mps 702 mmHg 66%
    21:00 +3°C° 0 mm 2 mps 702 mmHg 63%
    22:00 +2°C° 0 mm 2 mps 702 mmHg 64%
    23:00 +2°C° 0 mm 2 mps 702 mmHg 65%

    Tomorrow, 21 January, Sunday

    Time Temperature Precipitation Wind Pressure Humidity
    00:00 +2°C° 0 mm 2 mps 702 mmHg 66%
    01:00 +2°C° 0 mm 2 mps 702 mmHg 66%
    02:00 +1°C° 0 mm 2 mps 701 mmHg 67%
    03:00 +1°C° 0 mm 2 mps 701 mmHg 67%
    04:00 +1°C° 0 mm 2 mps 701 mmHg 66%
    05:00 +1°C° 0 mm 2 mps 701 mmHg 65%
    06:00 +1°C° 0 mm 2 mps 701 mmHg 64%
    07:00 +2°C° 0 mm 2 mps 701 mmHg 62%
    08:00 +3°C° 0 mm 2 mps 701 mmHg 59%
    09:00 +4°C° 0 mm 2 mps 701 mmHg 57%
    10:00 +5°C° 0 mm 2 mps 701 mmHg 55%
    11:00 +7°C° 0 mm 2 mps 701 mmHg 52%
    12:00 +8°C° 0 mm 2 mps 700 mmHg 50%
    13:00 +9°C° 0 mm 1 mps 700 mmHg 50%
    14:00 +10°C° 0 mm 1 mps 700 mmHg 49%
    15:00 +10°C° 0 mm 1 mps 700 mmHg 49%
    16:00 +8°C° 0 mm 1 mps 701 mmHg 50%
    17:00 +7°C° 0 mm 1 mps 701 mmHg 51%
    18:00 +5°C° 0 mm 1 mps 702 mmHg 52%
    19:00 +5°C° 0 mm 1 mps 702 mmHg 51%
    20:00 +4°C° 0 mm 2 mps 702 mmHg 50%
    21:00 +3°C° 0 mm 2 mps 701 mmHg 49%
    22:00 +3°C° 0 mm 2 mps 701 mmHg 48%
    23:00 +3°C° 0 mm 2 mps 701 mmHg 47%

    Day after tomorrow, 22 January, Monday

    Time Temperature Precipitation Wind Pressure Humidity
    00:00 +3°C° 0 mm 2 mps 700 mmHg 46%
    01:00 +3°C° 0 mm 2 mps 700 mmHg 47%
    02:00 +3°C° 0 mm 2 mps 700 mmHg 47%
    03:00 +3°C° 0 mm 2 mps 699 mmHg 48%
    04:00 +3°C° 0 mm 2 mps 699 mmHg 48%
    05:00 +3°C° 0 mm 2 mps 698 mmHg 49%
    06:00 +3°C° 0 mm 2 mps 698 mmHg 49%
    07:00 +4°C° 0 mm 2 mps 698 mmHg 49%
    08:00 +4°C° 0 mm 2 mps 698 mmHg 48%
    09:00 +5°C° 0 mm 2 mps 698 mmHg 48%
    10:00 +5°C° 0 mm 3 mps 697 mmHg 46%
    11:00 +7°C° 0 mm 3 mps 697 mmHg 44%
    12:00 +7°C° 0 mm 4 mps 696 mmHg 42%
    13:00 +7°C° 0 mm 4 mps 696 mmHg 42%
    14:00 +8°C° 0 mm 3 mps 695 mmHg 43%
    15:00 +8°C° 0 mm 3 mps 695 mmHg 43%
    16:00 +7°C° 0 mm 3 mps 695 mmHg 45%
    17:00 +5°C° 0 mm 2 mps 695 mmHg 47%
    18:00 +4°C° 0 mm 2 mps 695 mmHg 49%
    19:00 +3°C° 0 mm 2 mps 695 mmHg 49%
    20:00 +3°C° 0 mm 2 mps 695 mmHg 50%
    21:00 +3°C° 0 mm 2 mps 695 mmHg 51%
    22:00 +2°C° 0 mm 2 mps 695 mmHg 51%
    23:00 +2°C° 0 mm 2 mps 695 mmHg 51%

    23 January, Tuesday

    Time Temperature Precipitation Wind Pressure Humidity
    00:00 +2°C° 0 mm 2 mps 695 mmHg 51%
    01:00 +2°C° 0 mm 2 mps 695 mmHg 52%
    02:00 +2°C° 0 mm 2 mps 695 mmHg 52%
    03:00 +2°C° 0 mm 2 mps 695 mmHg 52%
    04:00 +1°C° 0 mm 2 mps 695 mmHg 53%
    05:00 +1°C° 0 mm 2 mps 695 mmHg 53%
    06:00 +1°C° 0 mm 2 mps 695 mmHg 53%
    07:00 +2°C° 0 mm 2 mps 695 mmHg 51%
    08:00 +3°C° 0 mm 2 mps 695 mmHg 50%
    09:00 +4°C° 0 mm 2 mps 695 mmHg 49%
    10:00 +5°C° 0 mm 2 mps 695 mmHg 47%
    11:00 +7°C° 0 mm 2 mps 694 mmHg 45%
    12:00 +8°C° 0 mm 2 mps 694 mmHg 43%
    13:00 +8°C° 0 mm 2 mps 694 mmHg 44%
    14:00 +8°C° 0 mm 2 mps 694 mmHg 44%
    15:00 +8°C° 0 mm 2 mps 694 mmHg 45%
    16:00 +7°C° 0 mm 2 mps 694 mmHg 47%
    17:00 +7°C° 0 mm 1 mps 694 mmHg 49%
    18:00 +6°C° 0 mm 1 mps 694 mmHg 51%
    19:00 +6°C° 0 mm 1 mps 694 mmHg 52%
    20:00 +6°C° 0 mm 1 mps 695 mmHg 54%
    21:00 +5°C° 0 mm 1 mps 695 mmHg 55%
    22:00 +5°C° 0.1 mm 1 mps 695 mmHg 58%
    23:00 +5°C° 0.1 mm 1 mps 695 mmHg 60%

    24 January, Wednesday

    Time Temperature Precipitation Wind Pressure Humidity
    00:00 +5°C° 0.1 mm 1 mps 695 mmHg 62%
    01:00 +5°C° 0.1 mm 1 mps 695 mmHg 65%
    02:00 +4°C° 0.1 mm 1 mps 696 mmHg 68%
    03:00 +3°C° 0.1 mm 2 mps 696 mmHg 70%
    04:00 +3°C° 0.1 mm 2 mps 696 mmHg 73%
    05:00 +2°C° 0.1 mm 2 mps 697 mmHg 77%
    06:00 +2°C° 0.1 mm 2 mps 697 mmHg 80%
    07:00 +2°C° 0.1 mm 2 mps 697 mmHg 80%
    08:00 +2°C° 0.1 mm 3 mps 698 mmHg 80%
    09:00 +2°C° 0.1 mm 3 mps 698 mmHg 80%
    10:00 +3°C° 0 mm 3 mps 698 mmHg 77%
    11:00 +4°C° 0 mm 4 mps 699 mmHg 74%
    12:00 +4°C° 0 mm 4 mps 699 mmHg 71%
    13:00 +4°C° 0 mm 4 mps 699 mmHg 72%
    14:00 +4°C° 0 mm 4 mps 699 mmHg 72%
    15:00 +4°C° 0 mm 4 mps 699 mmHg 73%
    16:00 +3°C° 0 mm 3 mps 700 mmHg 76%
    17:00 +2°C° 0 mm 3 mps 700 mmHg 79%
    18:00 +2°C° 0 mm 2 mps 701 mmHg 82%
    19:00 +2°C° 0 mm 2 mps 701 mmHg 83%
    20:00 +1°C° 0 mm 2 mps 702 mmHg 83%
    21:00 +1°C° 0 mm 2 mps 702 mmHg 84%
    22:00 +1°C° 0 mm 2 mps 702 mmHg 82%
    23:00 +1°C° 0 mm 2 mps 703 mmHg 81%

    25 January, Thursday

    Time Temperature Precipitation Wind Pressure Humidity
    00:00 +1°C° 0 mm 2 mps 703 mmHg 80%
    01:00 +1°C° 0 mm 2 mps 703 mmHg 77%
    02:00 +2°C° 0 mm 1 mps 703 mmHg 75%
    03:00 +2°C° 0 mm 1 mps 704 mmHg 73%
    04:00 +2°C° 0 mm 1 mps 704 mmHg 72%
    05:00 +2°C° 0 mm 1 mps 704 mmHg 70%
    06:00 +2°C° 0 mm 1 mps 704 mmHg 69%
    07:00 +3°C° 0 mm 1 mps 705 mmHg 67%
    08:00 +3°C° 0 mm 1 mps 705 mmHg 65%
    09:00 +4°C° 0 mm 1 mps 705 mmHg 63%
    10:00 +4°C° 0 mm 2 mps 705 mmHg 61%
    11:00 +5°C° 0 mm 2 mps 705 mmHg 58%
    12:00 +6°C° 0 mm 2 mps 705 mmHg 56%
    13:00 +7°C° 0 mm 3 mps 705 mmHg 57%
    14:00 +7°C° 0 mm 3 mps 705 mmHg 57%
    15:00 +7°C° 0 mm 3 mps 704 mmHg 58%
    16:00 +5°C° 0 mm 2 mps 705 mmHg 62%
    17:00 +4°C° 0 mm 2 mps 705 mmHg 65%
    18:00 +3°C° 0 mm 2 mps 705 mmHg 68%
    19:00 +2°C° 0 mm 2 mps 705 mmHg 69%
    20:00 +2°C° 0 mm 2 mps 706 mmHg 70%
    21:00 +2°C° 0 mm 2 mps 706 mmHg 71%
    22:00 +1°C° 0 mm 2 mps 706 mmHg 71%
    23:00 +1°C° 0 mm 2 mps 706 mmHg 72%
    Show more